* Astronomy

Members Login
Username 
 
Password 
    Remember Me  
Post Info TOPIC: Asteroid 2012 BK86


L

Posts: 131433
Date:
Asteroid 2012 BK86
Permalink  
 


Orbital elements:
2012 BK86                                                Earth MOID = 0.4094 AU
Epoch 2012 Mar. 14.0 TT = JDT 2456000.5                 MPC
M 348.45942              (2000.0)            P               Q
n   0.40835070     Peri.   61.87628     -0.92998903     +0.05345461
a   1.7993425      Node   119.04647     -0.12510657     -0.97633316
e   0.2866781      Incl.   24.58243     +0.34564252     -0.20956185
P   2.41           H   21.9           G   0.15           U   9

MPEC 2012 - B107



__________________
Page 1 of 1  sorted by
 
Quick Reply

Please log in to post quick replies.



Create your own FREE Forum
Report Abuse
Powered by ActiveBoard